Wind_Speed
20 21 23 25 27 29 30 32 34 35 35 34 35 36 36 38 39 38 34 29 28 27 25 22 15 13 7 8 20 11 13 12 7 17 33 29 25 20 8 6 6 6 6 12 23 25 18
21 22 23 25 27 29 31 33 34 35 34 34 34 35 35 36 36 36 32 29 33 26 20 17 12 8 9 7 8 6 4 5 6 19 27 32 18 24 10 5 16 5 15 18 20 19 12
22 23 24 26 28 30 31 33 34 34 34 34 35 35 37 38 40 38 32 29 31 22 18 13 9 10 12 23 7 6 6 6 7 20 23 30 21 22 7 1 17 8 6 6 6 8 8
24 25 26 27 29 31 32 34 34 35 35 35 34 34 34 35 38 36 31 30 27 23 11 7 3 11 11 6 7 13 8 8 9 14 21 24 29 11 5 2 3 3 3 8 5 10 7
25 26 27 28 30 32 33 35 36 36 35 33 35 35 36 36 37 37 32 32 21 17 7 6 3 9 10 6 7 7 12 11 12 9 14 11 19 12 4 4 3 3 4 5 4 7 5
26 26 27 29 31 33 35 36 36 36 37 37 35 36 37 37 37 38 33 35 17 10 6 7 7 6 10 4 5 5 7 10 11 13 7 9 7 4 4 7 16 8 4 3 5 4 5
27 28 28 30 32 34 35 35 36 36 37 38 37 37 38 38 37 37 31 32 15 3 7 9 21 11 6 5 6 7 10 12 10 10 7 6 4 10 14 17 7 1 5 5 3 4 3
27 28 30 31 33 33 34 34 35 36 37 38 40 41 40 41 38 29 27 12 17 14 17 25 28 27 30 23 6 8 10 11 8 6 5 2 12 7 7 7 9 8 11 12 4 7 3
27 29 31 32 33 34 33 33 34 35 39 41 44 44 43 43 38 14 27 10 26 9 8 13 8 6 5 16 10 12 19 9 4 6 7 7 5 7 10 6 10 10 14 7 11 4 5
29 30 31 33 34 33 32 34 35 38 42 42 45 48 42 41 22 32 9 20 22 3 5 6 3 1 3 3 4 7 17 6 3 9 7 7 11 8 5 8 10 13 7 11 9 5 6
29 31 33 32 32 32 33 35 36 38 45 46 50 51 42 39 30 19 12 24 7 2 5 1 3 2 1 4 1 4 10 6 5 5 6 6 3 5 7 10 10 6 6 8 7 7 1
31 32 31 31 31 31 32 35 37 37 43 46 52 49 48 34 20 10 21 21 2 2 9 3 4 5 5 3 1 2 3 3 1 2 2 6 2 1 3 2 3 6 5 5 4 3 4
32 31 31 31 32 33 37 38 38 39 42 45 50 48 39 18 9 14 24 9 1 5 6 6 5 7 5 4 4 1 3 2 2 1 3 1 3 0 2 4 3 2 6 2 1 1 6
32 29 31 32 35 35 37 39 38 41 40 43 48 45 20 8 5 15 25 3 5 3 4 3 6 10 2 10 5 8 5 3 5 3 1 3 4 6 4 2 6 5 4 4 7 5 3
30 30 31 33 33 35 36 37 38 40 38 43 47 39 13 15 19 28 11 2 4 7 6 7 9 3 5 5 5 7 1 6 5 6 1 3 3 2 3 2 2 1 3 1 4 2 2
29 30 31 33 34 36 35 39 40 37 36 39 37 34 13 23 31 25 2 3 3 15 12 6 5 5 6 7 8 7 6 7 8 11 6 7 5 2 2 2 6 4 4 3 3 4 5
29 30 33 34 34 34 35 34 35 35 33 30 28 15 15 25 22 9 3 6 4 13 19 6 5 4 2 3 2 3 4 3 4 8 6 5 2 4 2 2 2 2 2 3 1 0 2
30 31 32 35 34 33 34 35 34 31 32 30 13 5 18 26 7 3 4 7 9 7 16 6 3 3 2 2 2 2 1 3 4 4 1 2 2 3 2 3 4 2 1 3 2 2 2
30 29 33 32 30 32 30 30 31 31 31 29 16 9 11 19 3 4 6 5 4 7 5 4 3 2 3 2 3 1 2 3 3 4 3 3 2 3 1 2 4 3 2 4 3 2 1
30 32 31 29 29 26 26 29 31 31 28 27 7 4 7 9 5 4 6 4 8 11 4 3 4 5 1 2 3 3 1 3 3 3 8 4 2 2 2 3 2 4 7 5 3 3 1
28 29 29 27 26 26 27 30 30 28 28 22 5 3 6 4 4 8 4 3 6 7 4 7 4 4 4 3 1 2 1 4 2 6 3 4 3 3 4 5 4 3 6 2 2 3 3
27 27 27 27 27 27 29 29 27 24 25 14 9 5 10 10 11 8 5 2 5 4 3 6 4 12 10 6 5 3 3 3 5 5 3 4 2 2 3 2 6 6 6 6 4 3 1
25 26 28 28 27 26 27 25 24 21 21 8 13 14 6 7 4 4 3 5 6 11 6 5 12 9 4 3 3 7 10 5 3 4 2 1 3 2 3 3 4 2 5 7 3 3 7
23 26 26 27 24 24 26 22 20 19 17 12 12 11 4 4 2 5 6 7 10 11 5 9 11 6 10 12 14 7 5 3 4 7 5 3 3 2 3 2 2 3 4 2 8 4 3
24 24 26 26 24 22 21 19 16 16 13 16 12 9 3 3 5 5 10 4 15 13 3 4 6 9 15 8 4 5 4 2 2 2 4 5 2 1 1 2 2 0 5 4 2 3 4
22 24 25 25 23 22 19 17 16 15 14 14 11 8 5 4 3 10 6 10 3 4 6 4 8 10 9 3 3 3 3 3 4 4 3 2 3 3 1 3 1 1 5 11 2 2 4
23 23 24 23 21 20 19 17 15 14 14 14 7 8 4 4 7 10 4 6 9 8 4 4 10 7 8 2 3 2 2 1 4 6 3 2 3 1 1 1 1 4 10 13 5 3 2
22 22 22 21 20 19 18 16 15 15 13 12 8 9 4 3 3 6 7 7 10 6 3 9 5 4 4 4 2 2 1 2 2 3 4 3 1 1 2 3 2 7 7 5 2 3 4
21 21 20 19 18 17 17 16 17 16 12 8 5 10 5 1 1 2 6 8 10 9 7 8 4 3 3 2 2 1 2 3 1 3 4 3 2 2 1 1 2 8 9 6 6 4 5
Wind_Direction
10 7 5 4 3 3 0 0 359 358 357 355 353 351 349 347 345 342 342 337 329 321 313 306 298 276 238 226 245 244 252 253 252 204 198 200 194 196 187 191 211 231 220 213 236 248 253
8 5 3 1 360 360 360 358 358 357 355 353 351 349 346 344 343 340 343 338 333 323 311 298 285 241 226 261 269 233 250 257 242 197 199 199 206 204 218 213 201 211 201 236 252 251 235
5 2 360 358 357 357 358 356 355 356 354 352 350 349 346 345 342 341 341 339 334 327 318 304 277 216 233 253 266 220 216 215 202 196 195 204 209 187 223 275 252 254 273 271 223 217 230
2 360 357 355 356 356 356 355 353 353 354 351 348 346 345 344 342 339 339 340 331 325 326 319 279 199 245 264 248 241 208 186 201 211 218 218 211 216 210 282 356 222 169 235 205 193 223
358 356 354 354 355 355 354 353 352 350 350 348 343 344 343 342 341 337 336 340 326 317 316 319 241 210 258 244 238 220 221 218 214 207 206 209 210 211 181 149 340 248 228 208 293 205 161
354 352 353 354 354 353 353 351 348 346 345 345 344 343 341 340 340 337 332 340 326 298 285 298 263 246 244 235 212 201 198 192 184 195 174 184 185 175 174 174 221 210 217 216 191 209 193
351 351 352 354 352 351 349 347 346 344 344 342 342 341 339 336 338 336 330 347 354 284 254 253 271 257 279 227 225 216 202 187 179 171 174 189 177 209 208 217 232 105 213 210 181 247 201
350 349 351 352 351 347 345 345 344 345 345 344 340 342 338 333 334 332 338 6 358 305 295 289 277 264 253 247 291 239 202 183 171 183 144 90 239 221 201 204 218 225 247 248 261 262 196
348 350 351 349 345 345 345 344 346 346 344 342 344 341 336 333 333 335 334 329 336 315 272 296 258 241 284 206 224 256 200 192 164 167 187 180 238 183 195 196 211 222 227 231 242 219 240
350 351 347 344 344 346 346 347 346 342 344 344 344 344 342 338 340 333 356 338 331 301 293 279 274 237 160 157 228 220 193 179 194 202 179 226 242 240 174 219 194 238 197 223 232 178 233
350 347 345 346 346 348 348 346 341 342 344 342 342 345 345 337 326 336 339 342 336 322 329 141 108 113 259 202 270 188 183 200 204 191 132 232 207 186 201 212 173 226 189 203 206 210 287
349 347 348 347 352 350 349 346 342 340 340 341 339 343 341 333 338 356 347 340 309 236 247 337 42 2 4 354 307 131 176 193 186 205 206 242 334 215 182 74 165 136 86 61 66 134 230
349 348 350 351 351 348 345 343 341 339 335 338 338 342 341 334 354 359 351 343 310 222 341 6 347 334 351 304 336 235 163 163 215 141 238 265 210 159 150 106 44 120 123 166 324 320 230
348 352 353 351 349 343 339 338 337 337 335 335 337 343 349 342 344 339 345 15 233 44 356 356 319 315 78 17 1 2 22 30 36 5 182 213 270 178 178 189 175 181 181 171 201 195 238
357 355 351 346 342 337 336 334 333 334 334 335 337 347 7 2 338 329 327 296 323 2 317 331 320 350 29 18 345 355 73 6 34 21 248 260 237 8 56 81 44 192 214 59 102 174 79
352 349 343 337 336 335 336 332 337 340 337 333 347 345 17 353 338 331 101 230 49 353 329 327 339 34 353 348 19 17 352 2 357 14 347 2 296 17 107 102 43 129 140 149 203 203 201
347 343 336 338 338 333 335 344 344 345 344 350 350 340 355 343 348 6 27 10 332 349 351 332 323 305 326 328 10 312 349 49 348 7 48 2 353 17 327 359 172 105 161 209 315 289 195
340 339 339 336 346 347 346 347 349 347 346 356 357 322 349 359 36 3 336 324 305 317 337 237 249 265 276 318 340 270 3 185 354 335 56 263 322 317 12 351 32 358 194 146 204 188 56
338 336 340 346 346 349 356 359 353 349 352 350 336 295 352 355 37 342 321 323 286 322 332 360 304 34 330 195 3 342 324 301 2 41 139 302 46 322 256 87 20 17 354 64 78 78 100
333 341 344 347 349 2 1 357 358 357 352 351 339 322 322 353 7 8 327 313 329 323 298 271 278 244 231 269 210 282 311 21 326 339 339 92 66 135 238 326 22 322 359 55 87 93 102
342 346 347 347 351 357 354 349 350 352 355 356 2 326 322 320 338 324 287 269 310 340 309 312 312 272 262 230 259 211 98 341 303 339 30 99 154 167 268 281 245 251 292 274 120 131 109
346 346 348 347 354 352 347 345 349 353 354 8 356 316 327 289 307 327 313 325 301 327 270 310 286 309 299 219 200 204 129 179 231 339 64 352 256 84 300 360 4 236 243 257 230 133 65
346 348 351 349 349 347 345 345 350 354 351 353 347 331 285 291 328 336 345 340 316 332 305 306 317 309 6 33 304 275 257 256 221 150 201 137 155 84 276 312 2 347 234 214 178 164 151
346 350 352 350 349 347 346 348 352 356 351 353 343 332 297 288 2 324 320 310 322 321 278 312 352 351 351 325 304 283 287 266 272 258 211 166 131 123 224 353 13 312 5 123 114 65 351
348 352 351 351 350 349 347 353 353 358 359 351 347 311 299 280 265 323 334 327 330 343 324 314 334 335 333 324 22 9 352 14 32 209 225 232 169 80 116 193 275 221 6 11 17 24 345
348 349 352 350 354 354 358 355 353 0 350 352 3 8 317 287 4 4 333 328 328 315 333 318 343 342 347 50 53 55 20 291 340 348 345 282 173 123 83 126 276 77 308 347 282 26 357
348 350 351 351 356 359 359 358 357 358 352 357 3 355 342 290 24 13 354 349 336 320 308 317 337 340 359 24 48 21 330 328 357 343 1 13 40 98 84 87 343 312 299 315 76 242 75
346 350 350 354 355 355 357 358 359 352 353 352 1 358 339 307 328 21 8 350 346 355 346 327 343 344 359 39 67 298 30 292 9 319 351 26 7 50 54 55 8 359 322 86 236 85 123
346 347 348 348 351 352 353 353 355 356 3 357 344 341 356 166 159 18 348 344 353 338 313 320 293 303 295 58 18 52 340 6 32 338 345 28 141 207 33 73 35 34 77 61 45 96 87
Height
1556 1552 1548 1544 1539 1534 1529 1524 1519 1514 1509 1504 1499 1493 1487 1481 1474 1468 1463 1457 1452 1447 1443 1440 1439 1438 1438 1436 1425 1427 1427 1427 1428 1429 1433 1439 1444 1445 1446 1445 1448 1447 1447 1447 1450 1453 1455
1556 1551 1547 1543 1539 1534 1530 1525 1520 1514 1509 1504 1498 1491 1485 1478 1472 1465 1459 1454 1448 1442 1437 1435 1434 1434 1437 1436 1422 1422 1422 1424 1426 1427 1430 1436 1437 1441 1442 1442 1443 1440 1442 1444 1445 1448 1451
1555 1550 1547 1543 1539 1534 1529 1524 1519 1514 1508 1502 1496 1490 1483 1476 1469 1463 1457 1450 1444 1439 1435 1432 1432 1432 1432 1421 1420 1420 1421 1422 1424 1424 1427 1432 1436 1439 1439 1441 1441 1440 1443 1442 1441 1443 1445
1554 1551 1547 1542 1537 1533 1527 1523 1517 1512 1507 1500 1494 1488 1481 1474 1467 1460 1454 1448 1441 1436 1432 1429 1428 1430 1425 1418 1418 1418 1420 1421 1422 1424 1427 1430 1433 1437 1438 1439 1438 1440 1442 1445 1436 1438 1439
1555 1551 1546 1541 1537 1532 1527 1521 1516 1510 1505 1498 1491 1485 1478 1472 1464 1456 1450 1445 1438 1433 1432 1429 1428 1428 1419 1414 1414 1415 1416 1418 1420 1422 1424 1428 1431 1433 1435 1438 1445 1442 1443 1443 1438 1432 1434
1555 1550 1546 1541 1536 1531 1525 1520 1514 1508 1501 1495 1489 1482 1475 1469 1462 1454 1447 1442 1436 1431 1430 1428 1427 1428 1416 1413 1411 1411 1413 1415 1418 1421 1425 1427 1428 1429 1432 1432 1424 1436 1443 1439 1436 1430 1433
1554 1550 1545 1540 1535 1529 1524 1518 1512 1506 1499 1493 1486 1479 1472 1465 1459 1452 1444 1439 1436 1432 1429 1426 1422 1416 1413 1411 1410 1409 1410 1413 1414 1417 1422 1421 1427 1426 1424 1422 1425 1429 1434 1435 1430 1427 1430
1554 1549 1543 1539 1533 1528 1522 1516 1510 1504 1497 1490 1482 1476 1468 1460 1455 1450 1446 1443 1446 1443 1421 1416 1405 1406 1406 1409 1410 1408 1410 1413 1412 1416 1418 1423 1419 1417 1420 1423 1425 1428 1430 1429 1431 1428 1431
1553 1548 1542 1537 1531 1526 1520 1515 1509 1503 1496 1488 1481 1474 1466 1457 1451 1448 1445 1444 1442 1438 1431 1405 1402 1401 1400 1402 1406 1404 1406 1408 1410 1415 1416 1420 1412 1408 1416 1420 1423 1424 1426 1429 1429 1427 1427
1551 1546 1541 1535 1530 1524 1520 1514 1508 1502 1495 1487 1478 1471 1463 1453 1449 1445 1442 1443 1439 1436 1431 1410 1402 1401 1402 1401 1402 1400 1403 1406 1408 1411 1414 1415 1407 1409 1415 1416 1418 1422 1419 1420 1426 1431 1435
1550 1545 1539 1534 1529 1524 1519 1513 1507 1500 1493 1484 1476 1468 1461 1454 1447 1444 1445 1440 1437 1437 1443 1401 1400 1401 1401 1402 1401 1399 1400 1403 1406 1405 1411 1405 1402 1406 1410 1406 1411 1414 1413 1417 1420 1426 1426
1549 1543 1538 1534 1528 1523 1518 1511 1505 1497 1490 1482 1473 1465 1456 1448 1445 1445 1442 1439 1439 1438 1433 1403 1402 1404 1402 1400 1399 1400 1400 1402 1403 1403 1404 1405 1402 1402 1402 1406 1406 1410 1416 1421 1427 1428 1436
1547 1542 1538 1533 1528 1522 1516 1509 1503 1495 1488 1480 1471 1463 1453 1447 1446 1444 1441 1438 1442 1433 1409 1414 1412 1408 1408 1406 1401 1400 1401 1404 1406 1406 1409 1402 1403 1403 1403 1407 1409 1410 1416 1422 1438 1449 1425
1546 1541 1537 1532 1527 1520 1514 1507 1500 1493 1486 1478 1470 1461 1453 1448 1446 1444 1442 1441 1440 1419 1422 1417 1414 1411 1408 1412 1407 1404 1404 1409 1409 1407 1409 1406 1407 1403 1402 1403 1404 1412 1409 1413 1432 1439 1435
1545 1541 1536 1531 1524 1518 1512 1505 1498 1491 1483 1475 1467 1457 1451 1450 1447 1444 1443 1447 1436 1432 1428 1424 1418 1414 1414 1417 1416 1410 1412 1413 1412 1413 1410 1402 1402 1402 1401 1401 1403 1411 1413 1419 1431 1434 1438
1545 1540 1535 1528 1522 1516 1509 1502 1495 1488 1481 1474 1466 1456 1452 1450 1446 1440 1441 1437 1437 1438 1431 1427 1427 1425 1426 1425 1422 1424 1420 1425 1421 1419 1417 1417 1407 1406 1405 1405 1410 1409 1414 1419 1416 1411 1407
1543 1538 1532 1526 1519 1512 1506 1499 1493 1486 1480 1474 1467 1459 1454 1450 1444 1442 1444 1445 1442 1440 1437 1433 1431 1428 1427 1428 1426 1426 1429 1430 1426 1423 1423 1425 1420 1414 1412 1412 1411 1416 1415 1418 1418 1416 1408
1542 1537 1531 1524 1517 1510 1504 1498 1492 1485 1478 1472 1469 1465 1456 1452 1451 1450 1449 1449 1444 1439 1435 1432 1431 1430 1429 1430 1432 1428 1426 1429 1426 1425 1425 1425 1425 1419 1418 1417 1415 1416 1415 1413 1412 1425 1430
1540 1535 1527 1521 1515 1509 1503 1498 1492 1486 1480 1474 1470 1464 1458 1456 1460 1457 1451 1448 1445 1440 1438 1435 1435 1433 1429 1432 1440 1433 1431 1428 1427 1426 1431 1428 1430 1435 1416 1417 1421 1420 1420 1419 1424 1426 1432
1537 1530 1525 1519 1514 1508 1503 1498 1492 1487 1481 1476 1473 1469 1460 1458 1460 1461 1457 1449 1447 1442 1438 1436 1433 1431 1430 1432 1430 1435 1430 1429 1429 1427 1425 1426 1440 1434 1440 1430 1431 1432 1423 1424 1436 1435 1431
1534 1528 1522 1518 1513 1508 1503 1498 1493 1488 1482 1478 1476 1474 1472 1464 1461 1460 1459 1453 1450 1447 1441 1437 1433 1432 1432 1434 1433 1432 1430 1432 1430 1429 1428 1432 1444 1437 1433 1430 1429 1431 1429 1430 1436 1433 1437
1531 1526 1521 1516 1511 1507 1502 1497 1493 1488 1484 1481 1480 1477 1472 1466 1462 1460 1456 1452 1450 1449 1447 1442 1439 1432 1431 1429 1428 1432 1434 1439 1438 1433 1433 1434 1442 1434 1441 1428 1428 1430 1427 1428 1426 1429 1438
1529 1524 1519 1514 1510 1506 1501 1496 1492 1488 1484 1481 1480 1478 1475 1466 1463 1463 1460 1455 1453 1450 1444 1443 1440 1433 1429 1429 1429 1429 1429 1430 1432 1435 1439 1439 1439 1447 1454 1430 1427 1433 1427 1422 1424 1428 1432
1527 1523 1517 1513 1509 1504 1500 1495 1491 1488 1484 1481 1480 1478 1475 1473 1468 1464 1461 1458 1454 1451 1448 1443 1439 1437 1436 1433 1430 1428 1427 1429 1431 1431 1433 1439 1437 1437 1454 1432 1447 1427 1422 1420 1425 1431 1431
1525 1520 1515 1511 1507 1502 1497 1494 1491 1487 1484 1481 1479 1477 1475 1474 1468 1464 1462 1459 1454 1449 1448 1446 1443 1441 1437 1434 1436 1441 1435 1428 1431 1430 1430 1430 1431 1433 1440 1442 1431 1426 1426 1427 1425 1432 1432
1524 1519 1514 1510 1505 1500 1497 1493 1490 1486 1483 1480 1478 1476 1475 1473 1470 1468 1465 1462 1458 1455 1449 1446 1444 1441 1439 1439 1443 1455 1443 1434 1432 1429 1429 1428 1430 1435 1444 1449 1435 1431 1427 1426 1425 1437 1434
1522 1518 1513 1508 1504 1500 1495 1492 1489 1486 1483 1480 1477 1476 1474 1473 1471 1470 1468 1466 1463 1458 1454 1450 1447 1443 1441 1446 1448 1445 1443 1439 1439 1433 1430 1431 1433 1434 1433 1448 1437 1434 1429 1426 1437 1443 1436
1520 1515 1511 1507 1503 1499 1495 1492 1488 1485 1482 1480 1477 1475 1474 1473 1472 1471 1470 1469 1465 1463 1462 1454 1451 1448 1446 1451 1453 1453 1451 1447 1446 1440 1437 1437 1436 1441 1448 1454 1445 1435 1430 1435 1440 1438 1438
1517 1512 1509 1505 1501 1499 1495 1491 1488 1484 1481 1478 1477 1474 1471 1472 1472 1471 1470 1468 1466 1464 1462 1458 1456 1453 1450 1452 1455 1456 1452 1454 1452 1453 1437 1443 1442 1445 1440 1439 1440 1439 1439 1440 1439 1439 1441